[[{"header":{"parameterUnit":"m.s-1","parameterCategory":1,"la1":30.2991,"la2":30.254,"lo1":-89.0895,"lo2":-89.0444,"dy":0.0017,"dx":0.0017,"nx":28,"ny":28,"refTime":"2024-06-25T09:00:00:Z","depth":0,"parameterNumber":2,"parameterNumberName":"U-component_of_WINDS"},"data":[0,0,0,0,0,0,0,0,0,0,0,0,0,0,0,0,0,0,0,0,0,0,0,0,0,0,0,0,0,0,0,0,0,0,0,0,0,0,0,0,0,0,0,0,0,0,0,0,0,0,0,0,0,0,0,0,0,0,2.2523,2.2524,0,2.2679,2.2681,2.2683,2.272,2.2719,2.2718,2.2717,2.2874,2.2879,2.2884,0,0,0,0,0,0,0,0,0,0,0,0,0,2.2252,2.2257,2.2523,2.2525,2.2527,2.2679,2.2681,2.2683,2.272,2.2719,2.2718,2.2717,2.2872,2.2878,2.2885,0,0,0,0,0,0,0,0,0,0,0,0,0,2.2385,2.2258,2.2522,2.2564,2.2569,2.2679,2.2681,2.2684,2.2721,2.2719,2.2718,2.2716,2.287,2.2878,2.2885,2.2964,0,0,2.2909,2.2912,0,0,0,0,0,0,0,0,2.2377,2.2395,2.2556,2.2561,2.2567,2.2679,2.2643,2.2778,2.2721,2.2663,2.2717,2.2715,2.281,2.2823,2.2855,2.2972,2.2978,2.291,2.2914,2.2918,2.292,0,0,0,0,0,0,0,2.2368,2.2388,2.2585,2.2558,2.2565,2.2573,2.259,2.2669,2.2743,2.2668,2.2671,2.2689,2.2813,2.2848,2.2859,2.2981,2.291,2.2916,2.2921,2.2924,2.3169,2.3171,0,0,0,0,0,0,2.2352,2.238,2.258,2.2589,2.2467,2.2579,2.2598,2.2644,2.2743,2.2756,2.269,2.269,2.2835,2.285,2.2865,2.2964,2.2918,2.2925,2.2929,2.3167,2.317,2.3172,0,0,0,0,0,0,2.2346,2.237,2.2573,2.2486,2.2512,2.2586,2.2637,2.2648,2.2683,2.276,2.2773,2.2713,2.2835,2.2854,2.294,2.297,2.2928,2.2935,2.3165,2.3168,2.3171,2.3161,0,0,0,0,0,0,2.2338,2.2367,2.2399,2.2486,2.2517,2.2646,2.2639,2.2653,2.2697,2.2698,2.2784,2.2797,2.2835,2.2928,2.2947,2.2979,2.2941,2.3163,2.3166,2.317,2.3159,2.3164,2.3167,0,0,0,0,0,2.2329,2.2389,2.24,2.2424,2.2558,2.2648,2.2665,2.2709,2.2699,2.2731,2.278,2.2794,2.2963,2.2936,2.2958,2.2993,2.3161,2.3165,2.317,2.3158,2.3163,2.3167,0,0,0,0,0,0,2.2302,2.2401,2.2415,2.2506,2.2568,2.2654,2.2695,2.2713,2.2779,2.2777,2.2828,2.2847,2.2929,2.297,2.2938,2.3075,2.3062,2.3071,2.3045,2.3051,2.3054,2.3043,2.2948,0,0,0,0,0,2.2307,2.2373,2.2456,2.2528,2.2559,2.2622,2.2662,2.2691,2.2757,2.2783,2.2839,2.2901,2.2969,2.3012,2.3078,2.3166,2.3184,2.3201,2.3204,2.3207,2.3214,2.3263,2.3271,2.3186,2.3186,2.3186,0,0,2.2317,2.238,2.2418,2.2524,2.2576,2.2642,2.2643,2.2713,2.2762,2.2794,2.2878,2.2921,2.2994,2.3081,2.3121,2.3117,2.3242,2.3213,2.3214,2.322,2.3268,2.3276,2.3283,2.3188,2.3188,2.3188,0,0,2.237,2.2424,2.249,2.2542,2.2621,2.2663,2.2678,2.2762,2.2792,2.2878,2.2903,2.2961,2.3077,2.3128,2.3169,2.3241,2.3256,2.3261,2.3281,2.3328,2.3335,2.3341,2.3367,2.3375,2.3268,2.3268,2.3268,0,2.2372,2.2474,2.2521,2.259,2.2636,2.2669,2.2735,2.2783,2.2879,2.2909,2.2903,2.3049,2.3101,2.3199,2.3217,2.325,2.3268,2.3251,2.3331,2.3337,2.3344,2.3368,2.3378,2.3268,2.3268,2.3268,2.3268,0,2.2472,2.2542,2.2586,2.268,2.273,2.2797,2.2854,2.2899,2.2924,2.2965,2.3052,2.3115,2.3195,2.3221,2.3245,2.3323,2.3318,2.3321,2.3308,2.3351,2.3375,2.3385,2.3268,2.3268,2.3268,2.3268,0,0,2.2512,2.2631,2.2646,2.2689,2.2779,2.2833,2.2902,2.2981,2.3019,2.3084,2.3142,2.3239,2.3242,2.3288,2.3319,2.336,2.3413,2.3358,2.336,2.3365,2.3502,2.3499,2.351,2.3423,2.3425,2.3427,2.3496,0,2.2575,2.27,2.2745,2.2847,2.2912,2.2944,2.3004,2.3065,2.3106,2.3166,2.3211,2.3278,2.3278,2.3306,2.3349,2.3397,2.3441,2.3393,2.3477,2.3479,2.3457,2.3522,2.3519,2.3581,2.3506,2.3507,2.3509,0,2.2665,2.2733,2.2842,2.2924,2.2953,2.3005,2.3082,2.3139,2.3208,2.3235,2.3288,2.3315,2.3387,2.3371,2.347,2.3437,2.3474,2.3503,2.3506,2.3515,2.3496,2.3532,2.3602,2.3611,2.3524,2.3523,2.3522,0,2.2682,2.28,2.2881,2.2916,2.3014,2.3051,2.3093,2.3161,2.3206,2.3272,2.3301,2.3374,2.3414,2.347,2.3516,2.35,2.3611,2.3599,2.3634,2.3633,2.3655,2.3653,2.3732,2.368,2.368,2.368,2.368,0,2.2747,2.2812,2.289,2.2939,2.3013,2.3064,2.3135,2.3179,2.324,2.3297,2.333,2.3383,2.3441,2.3501,2.3538,2.3614,2.3632,2.3655,2.3664,2.3652,2.3649,2.3676,2.3673,2.3682,2.3682,2.3681,2.3681,0,2.2778,2.2833,2.2923,2.3009,2.3032,2.3082,2.3155,2.3204,2.3246,2.3319,2.3339,2.3405,2.3478,2.353,2.3624,2.3648,2.373,2.3739,2.3707,2.3711,2.3744,2.374,2.3842,2.3858,2.3796,2.3796,2.3797,0,2.2816,2.2867,2.2959,2.3001,2.3043,2.311,2.3156,2.3208,2.3254,2.3338,2.3376,2.3452,2.3515,2.363,2.3686,2.3757,2.3768,2.3799,2.3778,2.3765,2.3768,2.3764,2.3769,2.3801,2.3802,2.3802,2.3802,0,2.2877,2.2902,2.2968,2.3044,2.3098,2.316,2.3222,2.3254,2.3317,2.3367,2.3443,2.3492,2.3588,2.3663,2.374,2.3782,2.3802,2.3808,2.382,2.3808,2.3788,2.3799,2.3715,2.3805,2.3805,2.3805,2.3805,2.3805,2.2912,2.2959,2.3032,2.3104,2.3157,2.3214,2.3264,2.3314,2.3378,2.3462,2.3488,2.3566,2.3634,2.3741,2.3784,2.3845,2.3843,2.3861,2.3865,2.3868,2.3868,2.3778,2.3859,2.3859,2.3859,2.3859,2.3859,0,2.2975,2.3023,2.3089,2.3176,2.3233,2.3249,2.3318,2.3364,2.3434,2.3496,2.3558,2.3645,2.3717,2.3779,2.3854,2.3891,2.3902,2.3909,2.3906,2.3916,2.3865,2.3847,2.3898,2.3898,2.3898,2.3898,2.3898,2.3898,2.3014,2.3094,2.3128,2.3234,2.3282,2.336,2.3398,2.3451,2.3501,2.3597,2.3658,2.3699,2.3761,2.3841,2.3907,2.3924,2.3949,2.3954,2.3972,2.3924,2.3919,2.3915,2.3898,2.3959,2.3959,2.4017,2.4018,2.4018]},{"header":{"parameterUnit":"m.s-1","parameterCategory":1,"la1":30.2991,"la2":30.254,"lo1":-89.0895,"lo2":-89.0444,"dy":0.0017,"dx":0.0017,"nx":28,"ny":28,"refTime":"2024-06-25T09:00:00:Z","depth":0,"parameterNumber":3,"parameterNumberName":"V-component_of_WINDS"},"data":[0,0,0,0,0,0,0,0,0,0,0,0,0,0,0,0,0,0,0,0,0,0,0,0,0,0,0,0,0,0,0,0,0,0,0,0,0,0,0,0,0,0,0,0,0,0,0,0,0,0,0,0,0,0,0,0,0,0,5.215,5.2151,0,5.2198,5.2199,5.2199,5.2114,5.2111,5.2108,5.2105,5.215,5.2154,5.2158,0,0,0,0,0,0,0,0,0,0,0,0,0,5.1979,5.1982,5.215,5.2151,5.2152,5.2198,5.2199,5.2199,5.2114,5.2111,5.2107,5.2104,5.2149,5.2153,5.2158,0,0,0,0,0,0,0,0,0,0,0,0,0,5.2043,5.1983,5.215,5.2115,5.2112,5.2198,5.2199,5.22,5.2115,5.2111,5.2106,5.2102,5.2147,5.2153,5.2159,5.228,0,0,5.2176,5.2179,0,0,0,0,0,0,0,0,5.2039,5.2049,5.2119,5.2117,5.2114,5.2146,5.2155,5.2226,5.2116,5.2114,5.2105,5.21,5.2152,5.2157,5.2175,5.2282,5.2284,5.2177,5.218,5.2183,5.2184,0,0,0,0,0,0,0,5.2035,5.2046,5.2169,5.212,5.2117,5.2094,5.2099,5.2168,5.2156,5.2114,5.2108,5.2115,5.215,5.217,5.2176,5.2285,5.2177,5.2182,5.2185,5.2188,5.2491,5.2495,0,0,0,0,0,0,5.2035,5.2043,5.2167,5.217,5.2066,5.2101,5.2106,5.214,5.2155,5.2153,5.2118,5.211,5.2162,5.2169,5.2177,5.2318,5.2183,5.2188,5.2192,5.2486,5.2492,5.2497,0,0,0,0,0,0,5.2032,5.2047,5.2166,5.2105,5.2119,5.2108,5.2147,5.2143,5.2163,5.2159,5.2156,5.2142,5.2159,5.2169,5.2255,5.2319,5.2191,5.2196,5.2481,5.2488,5.2494,5.2604,0,0,0,0,0,0,5.2028,5.2047,5.2094,5.2107,5.2122,5.2245,5.2152,5.2147,5.2174,5.2164,5.218,5.2178,5.2156,5.2247,5.226,5.2324,5.2201,5.2475,5.2484,5.2492,5.2594,5.2613,5.263,0,0,0,0,0,5.2022,5.2123,5.2097,5.2113,5.2182,5.2249,5.2257,5.2232,5.218,5.2226,5.2223,5.2178,5.231,5.2256,5.2271,5.2338,5.2471,5.2481,5.2491,5.2586,5.261,5.2629,0,0,0,0,0,0,5.2117,5.2124,5.2096,5.2205,5.2227,5.2234,5.2293,5.2257,5.2294,5.2283,5.2248,5.2252,5.2345,5.2349,5.229,5.2454,5.2381,5.2395,5.2448,5.247,5.2488,5.2484,5.2205,0,0,0,0,0,5.2151,5.2207,5.2209,5.2304,5.2317,5.2303,5.2331,5.231,5.2331,5.2339,5.2342,5.2363,5.2409,5.244,5.2482,5.2594,5.2595,5.2647,5.2665,5.268,5.2692,5.2749,5.2772,5.253,5.253,5.253,0,0,5.2221,5.2232,5.2269,5.2324,5.2339,5.2395,5.2312,5.2375,5.2416,5.2348,5.243,5.2433,5.2453,5.2553,5.2596,5.2559,5.2758,5.2693,5.2704,5.2709,5.2762,5.2785,5.2805,5.2537,5.2536,5.2535,0,0,5.2378,5.2393,5.2473,5.2489,5.2513,5.2502,5.2522,5.2534,5.2534,5.2615,5.2565,5.2612,5.2692,5.2708,5.2727,5.2887,5.2846,5.2902,5.2995,5.3051,5.307,5.3087,5.3142,5.3163,5.2914,5.2914,5.2915,0,5.2462,5.2546,5.2518,5.2585,5.2609,5.2551,5.2631,5.2647,5.2683,5.27,5.2659,5.2757,5.2767,5.2868,5.2907,5.2925,5.2944,5.29,5.307,5.3086,5.3101,5.3154,5.3175,5.2921,5.292,5.2919,5.2919,0,5.2647,5.2706,5.2768,5.2805,5.2836,5.2909,5.2889,5.2924,5.2899,5.2892,5.2974,5.2984,5.3026,5.3048,5.3024,5.3146,5.3122,5.3076,5.3001,5.3132,5.318,5.32,5.293,5.2928,5.2926,5.2924,0,0,5.2867,5.2886,5.2909,5.2923,5.2944,5.2988,5.3057,5.3099,5.3129,5.3155,5.321,5.3279,5.3236,5.3257,5.3234,5.3284,5.3408,5.3231,5.3231,5.3262,5.354,5.3574,5.3598,5.3381,5.3385,5.3388,5.3538,0,5.3021,5.3142,5.3117,5.3234,5.3287,5.3231,5.3291,5.3309,5.3304,5.3346,5.334,5.3389,5.3329,5.3341,5.3388,5.3383,5.3463,5.3372,5.343,5.3433,5.3427,5.3624,5.3661,5.3802,5.3557,5.356,5.3562,0,5.3218,5.3252,5.3375,5.3385,5.3406,5.346,5.3495,5.3537,5.3556,5.3548,5.3572,5.3538,5.3604,5.3529,5.3618,5.3557,5.3579,5.358,5.3584,5.3588,5.3505,5.3632,5.3847,5.3868,5.3592,5.359,5.3588,0,5.3364,5.344,5.3522,5.3537,5.3552,5.3591,5.3598,5.3612,5.3638,5.3669,5.3685,5.3722,5.3742,5.3771,5.3748,5.3696,5.384,5.3764,5.3834,5.3835,5.3867,5.3865,5.4087,5.3883,5.3883,5.3882,5.3882,0,5.3538,5.3615,5.3588,5.3639,5.3722,5.3692,5.3775,5.3775,5.3788,5.3836,5.379,5.3836,5.3803,5.3846,5.3828,5.3903,5.3913,5.3908,5.3902,5.3912,5.3912,5.3925,5.3915,5.3888,5.3887,5.3886,5.3885,0,5.3715,5.3701,5.3787,5.3793,5.3796,5.3857,5.3862,5.3908,5.3899,5.396,5.3973,5.3959,5.4006,5.3986,5.4036,5.4024,5.4121,5.4102,5.4115,5.411,5.4181,5.4175,5.4419,5.4449,5.4226,5.4228,5.423,0,5.3828,5.3886,5.3898,5.3927,5.3938,5.3987,5.4013,5.3984,5.4013,5.4037,5.408,5.4124,5.4157,5.4236,5.4229,5.4266,5.4247,5.433,5.4253,5.426,5.4247,5.4244,5.4249,5.4346,5.4349,5.4351,5.4352,0,5.4028,5.4017,5.4058,5.4096,5.4129,5.4157,5.418,5.4207,5.4179,5.4213,5.4262,5.4288,5.4339,5.4382,5.4415,5.442,5.4382,5.4377,5.4395,5.4405,5.441,5.4407,5.4157,5.4371,5.437,5.4368,5.4367,5.4366,5.4175,5.4223,5.4239,5.4285,5.43,5.4323,5.4366,5.4362,5.4403,5.4443,5.4422,5.4478,5.4492,5.4533,5.4543,5.4585,5.4552,5.4579,5.4586,5.4593,5.4601,5.4404,5.4591,5.4591,5.459,5.459,5.4589,0,5.4372,5.4379,5.4422,5.4457,5.4492,5.4453,5.4477,5.4509,5.4559,5.4576,5.461,5.4664,5.4706,5.4702,5.4739,5.4774,5.4757,5.4784,5.4781,5.4783,5.4629,5.4609,5.4797,5.4797,5.4797,5.4797,5.4797,5.4797,5.4479,5.4557,5.4548,5.4633,5.4638,5.4694,5.471,5.473,5.4743,5.4807,5.4841,5.4839,5.4847,5.4884,5.4919,5.4917,5.4932,5.4967,5.4958,5.4814,5.4794,5.4774,5.4755,5.4971,5.4971,5.5107,5.5109,5.511]}]]